Lexington Weather

Lexington, Massachusetts, USA

77°F
8/3/2020 7:34am 
  • Lexington Conditions: Clear
  • Temperature: 76.8°F / 24.9°CWarmer 0.2°F than last hour.
  • Dew Point: 73.4°FDecreased 2.0°Fsince last hour.
  • Relative Humidity: 89%Decreased 7.0% since last hour.
  • Wind: Wind from SW SW 2 mph, 10-min avg: 3 mph, gust: 8 mph
  • Barometer: 29.84 in Steady
  • Visibility: 10 miles
  • Rain Today: 0.00 in
  •   

Regional Weather Roundup
for Boston / Norton, MA

        
000
ASUS41 KBOX 010204
RWRBOX

REGIONAL WEATHER ROUNDUP
NATIONAL WEATHER SERVICE BOSTON/NORTON MA
1000 PM EDT FRI JUL 31 2020

NOTE:  "FAIR" INDICATES FEW OR NO CLOUDS BELOW 12,000 FEET WITH NO 
SIGNIFICANT WEATHER AND/OR OBSTRUCTIONS TO VISIBILITY.

MAZALL-010300-
EASTERN MASSACHUSETTS
  
CITY           SKY/WX    TMP DP  RH WIND       PRES   REMARKS
BOSTON         PTCLDY    70  66  87 E5        29.86R                  
BEVERLY        CLEAR     71  67  87 S3        29.85R                  
LAWRENCE       CLEAR     72  65  78 CALM      29.87R                  
BEDFORD        CLEAR     71  63  75 CALM      29.84R                  
BLUE HILL      NOT AVBL                                               
NORWOOD        CLEAR     69  62  78 CALM      29.85R                  
MARSHFIELD     CLEAR     70  68  94 CALM      29.85R                  
PLYMOUTH       CLEAR     67  64  90 CALM      29.85R                  
TAUNTON        CLEAR     65  62  90 CALM      29.85R                  
NEW BEDFORD    CLEAR     69  68  96 CALM      29.85R                  
$$

MAZALL-010300-
CAPE COD AND THE ISLANDS
  
CITY           SKY/WX    TMP DP  RH WIND       PRES   REMARKS
FALMOUTH       CLEAR     66  66 100 CALM      29.83S                  
HYANNIS        CLEAR     68  66  93 CALM      29.84R                  
CHATHAM        CLEAR     69  67  93 NW5       29.86R                  
PROVINCETOWN   CLEAR     66  64  93 CALM      29.86R                  
NANTUCKET      CLOUDY    69  66  90 SW3       29.85R                  
MARTHAS VNYRD  MOCLDY    68  68 100 S3        29.85R FOG              
$$
 
MAZALL-010300-
CENTRAL AND WESTERN MASSACHUSETTS
  
CITY           SKY/WX    TMP DP  RH WIND       PRES   REMARKS
WORCESTER      PTCLDY    74  61  63 S5        29.89R                  
FITCHBURG      CLEAR     72  63  73 NW5       29.87R                  
ORANGE         MOCLDY    70  63  78 CALM      29.88R                  
SPRINGFIELD    PTCLDY    68  65  88 CALM      29.84R                  
WESTFIELD      PTCLDY    71  61  70 CALM      29.85R                  
NORTH ADAMS    CLEAR     66  60  81 CALM      29.89R                  
PITTSFIELD     CLEAR     67  60  78 CALM      29.89R                  
$$
 
RIZALL-010300-
RHODE ISLAND
  
CITY           SKY/WX    TMP DP  RH WIND       PRES   REMARKS
PROVIDENCE     PTCLDY    73  69  87 S3        29.86R                  
NEWPORT        CLEAR     71  67  87 CALM      29.85R                  
BLOCK ISLAND   CLEAR     68  66  93 W3        29.86R                  
SMITHFIELD     CLEAR     71  69  93 CALM      29.87R                  
WESTERLY       CLEAR     70  66  87 MISG      29.86R                  
$$
 
CTZALL-010300-
CONNECTICUT
  
CITY           SKY/WX    TMP DP  RH WIND       PRES   REMARKS
BRADLEY INTL   PTCLDY    74  57  55 CALM      29.83R                  
HARTFORD       CLEAR     76  69  79 S3        29.84R                  
BRIDGEPORT     CLEAR     75  69  81 CALM      29.84R                  
DANBURY        CLEAR     70  67  90 SW5       29.87R                  
GROTON         CLEAR     71  69  93 CALM      29.85R                  
NEW HAVEN      CLEAR     73  71  93 CALM      29.85R                  
CHESTER        FAIR      72  70  94 CALM      29.87R                  
MERIDEN        CLEAR     71  67  87 CALM      29.85R                  
WILLIMANTIC    CLEAR     74  69  85 CALM      29.86R                  
OXFORD         CLEAR     71  68  90 CALM      29.89R                  
$$

MEZ002-015-021-024-NHZ003-005-008-011-012-014-VTZ005-008-010300-
NORTHERN NEW ENGLAND
  
CITY           SKY/WX    TMP DP  RH WIND       PRES   REMARKS
PORTLAND ME    CLEAR     74  63  68 CALM      29.85R                  
BANGOR ME      CLEAR     69  62  78 CALM      29.84R                  
CONCORD NH     CLEAR     71  61  70 SE5       29.86R                  
MANCHESTER NH  PTCLDY    77  63  61 CALM      29.85R                  
NASHUA NH      CLEAR     75  68  78 CALM      29.86R                  
PORTSMOUTH NH  PTCLDY    70  64  81 CALM      29.84R                  
JAFFREY NH     CLEAR     66  60  81 CALM      29.90R                  
KEENE NH       CLEAR     67  63  87 CALM      29.88R                  
BURLINGTON VT  PTCLDY    73  59  61 CALM      29.88R                  
MT. WASHINGTON FOG       50  48  93 N20         N/A  VSB 1/8          
$$

NYZ052-076-010300-
EASTERN NEW YORK
  
CITY           SKY/WX    TMP DP  RH WIND       PRES   REMARKS
ALBANY         MOCLDY    73  63  70 NW5       29.87R                  
NEW YORK CITY  PTCLDY    80  67  64 S5        29.83R                  
$$
 
ANZALL-010300-
MARINE OBSERVATIONS
  
STATION/POSITION TIME  TEMP    WIND        PRES    VSBY  WAVE
                       AIR SEA DIR/SP/G                  HT/PER
                 (UTC) (F)     (DEG/KT/KT) (MB)    (MI)  (FT/S)
BOSTON BUOY      0150   72 74  140/  2/  4 1009.3R         1/ 8
BUZZARDS BAY     0100          170/  5/  5 1011.4R
NANTUCKET SOUND  0140      77  200/  4/  6 1009.8
MASS BAY-STELLWA 0104   73     190/  6/  8 1008.0R  1 3/4  2/11
ISLE OF SHOALS   0100   72     190/  5/  5 1009.9R
S OF BLOCK IS    0126      76                N/A           3/ 8
$$

......................KEY.........................
  SKY/WX - SKY CONDITION/PRESENT WEATHER
  TMP    - TEMPERATURE IN FAHRENHEIT
  DWPT   - DEWPOINT IN FAHRENHEIT
  RH     - RELATIVE HUMIDITY IN PERCENT
  WIND   - DIRECTION AND SPEED IN MPH
  PRES   - MEAN SEA LEVEL PRESSURE IN INCHES OF HG
  WCI    - WIND CHILL INDEX
  VSB    - VISIBILITY IN MILES
  HX     - HEAT INDEX
  TC     - TEMPERATURE IN CELSIUS
  VRB    - VARIABLE WIND DIRECTION
  N/A    - NOT AVAILABLE
  
      

Other recent Regional Weather Roundups

Mon Aug 3, 7:04am

Mon Aug 3, 6:04am

Mon Aug 3, 5:04am

Mon Aug 3, 4:04am

Mon Aug 3, 3:04am

Mon Aug 3, 2:04am

Mon Aug 3, 1:04am

Mon Aug 3, 12:05am

Sun Aug 2, 11:04pm

Sun Aug 2, 10:04pm

Sun Aug 2, 9:04pm

Sun Aug 2, 8:04pm

Sun Aug 2, 7:04pm

Sun Aug 2, 6:04pm

Sun Aug 2, 5:04pm

Sun Aug 2, 4:05pm

Sun Aug 2, 3:04pm

Sun Aug 2, 2:05pm

Sun Aug 2, 1:04pm

Sun Aug 2, 12:04pm

Sun Aug 2, 11:04am

Sun Aug 2, 10:04am

Sun Aug 2, 9:05am

Sun Aug 2, 8:05am

Sun Aug 2, 7:04am

Sun Aug 2, 6:04am

Sun Aug 2, 5:04am

Sun Aug 2, 4:05am

Sun Aug 2, 3:04am

Sun Aug 2, 2:04am

Sun Aug 2, 1:04am

Sun Aug 2, 12:05am

Sat Aug 1, 11:04pm

Sat Aug 1, 10:04pm

Sat Aug 1, 9:04pm

Sat Aug 1, 8:05pm

Sat Aug 1, 7:04pm

Sat Aug 1, 6:04pm

Sat Aug 1, 5:05pm

Sat Aug 1, 4:05pm

Sat Aug 1, 3:04pm

Sat Aug 1, 2:04pm

Sat Aug 1, 1:04pm

Sat Aug 1, 12:04pm

Sat Aug 1, 11:05am

Sat Aug 1, 10:05am

Sat Aug 1, 9:04am

Sat Aug 1, 8:04am

Sat Aug 1, 7:04am

Sat Aug 1, 6:04am

Sat Aug 1, 5:04am

Sat Aug 1, 4:05am

Sat Aug 1, 3:04am

Sat Aug 1, 2:04am

Sat Aug 1, 1:04am

Sat Aug 1, 12:05am

Fri Jul 31, 11:05pm

Fri Jul 31, 9:04pm

Fri Jul 31, 8:05pm

Fri Jul 31, 7:05pm

Fri Jul 31, 6:04pm

Fri Jul 31, 5:04pm

Fri Jul 31, 4:05pm

Fri Jul 31, 3:04pm

Fri Jul 31, 2:05pm

Fri Jul 31, 1:04pm

Fri Jul 31, 12:04pm

Fri Jul 31, 11:04am

Fri Jul 31, 10:04am

Fri Jul 31, 9:04am

Fri Jul 31, 8:04am

Fri Jul 31, 7:04am

Fri Jul 31, 6:04am

Fri Jul 31, 5:04am

Fri Jul 31, 4:04am

Fri Jul 31, 3:04am

Fri Jul 31, 2:04am

Fri Jul 31, 1:05am

Fri Jul 31, 12:04am

Thu Jul 30, 11:04pm

Thu Jul 30, 10:04pm

Thu Jul 30, 9:04pm

Thu Jul 30, 8:04pm

Thu Jul 30, 7:05pm

Thu Jul 30, 6:04pm

Thu Jul 30, 5:04pm

Thu Jul 30, 4:05pm

Thu Jul 30, 3:04pm

Thu Jul 30, 2:05pm

Thu Jul 30, 1:04pm

Thu Jul 30, 12:04pm

Thu Jul 30, 11:04am

Thu Jul 30, 10:05am

Thu Jul 30, 9:04am

Thu Jul 30, 8:04am

Thu Jul 30, 7:04am

Thu Jul 30, 6:04am

Thu Jul 30, 5:04am

Thu Jul 30, 4:04am

Thu Jul 30, 3:04am

Thu Jul 30, 2:04am

Thu Jul 30, 1:04am

Thu Jul 30, 12:04am

Wed Jul 29, 11:04pm

Wed Jul 29, 10:04pm

Wed Jul 29, 9:04pm

Wed Jul 29, 8:04pm

Wed Jul 29, 7:05pm

Wed Jul 29, 6:05pm

Wed Jul 29, 5:04pm

Wed Jul 29, 4:04pm

Wed Jul 29, 3:04pm

Wed Jul 29, 2:04pm

Wed Jul 29, 1:05pm

Wed Jul 29, 12:05pm

Wed Jul 29, 11:04am

Wed Jul 29, 10:04am

Wed Jul 29, 9:04am

Wed Jul 29, 8:04am

Wed Jul 29, 7:04am

Wed Jul 29, 6:04am

Wed Jul 29, 5:04am

Wed Jul 29, 4:04am

Wed Jul 29, 3:04am

Wed Jul 29, 2:04am

Wed Jul 29, 1:04am

Wed Jul 29, 12:05am

Tue Jul 28, 11:05pm

Tue Jul 28, 10:05pm

Tue Jul 28, 9:04pm

Tue Jul 28, 8:04pm

Tue Jul 28, 7:04pm

Tue Jul 28, 6:04pm

Tue Jul 28, 5:04pm

Tue Jul 28, 4:05pm

Tue Jul 28, 3:05pm

Tue Jul 28, 2:04pm

Tue Jul 28, 1:05pm

Tue Jul 28, 12:04pm

Tue Jul 28, 11:04am

Tue Jul 28, 10:04am

Tue Jul 28, 9:04am

Tue Jul 28, 8:04am

Tue Jul 28, 7:04am

Tue Jul 28, 6:04am

Tue Jul 28, 5:04am

Tue Jul 28, 4:04am

Tue Jul 28, 3:04am

Tue Jul 28, 2:04am

Tue Jul 28, 1:04am

Tue Jul 28, 12:05am

Mon Jul 27, 11:04pm

Mon Jul 27, 10:05pm

Mon Jul 27, 9:05pm

Mon Jul 27, 8:04pm

Mon Jul 27, 7:04pm

Mon Jul 27, 6:05pm

Mon Jul 27, 5:05pm

Mon Jul 27, 4:04pm

Mon Jul 27, 3:04pm

Mon Jul 27, 2:04pm

Mon Jul 27, 1:04pm

Mon Jul 27, 12:04pm

Mon Jul 27, 11:04am

Mon Jul 27, 10:04am

Mon Jul 27, 9:04am

Mon Jul 27, 8:04am

Meta data:

ID: d845d3cf-e0f3-4260-bf2d-7a42dcab75bb
Link: https://api.weather.gov/products/d845d3cf-e0f3-4260-bf2d-7a42dcab75bb